This is the latest recevied weather packets stored in our database for station/object W4DHW-4. If no packets are shown the sender has not sent any weather packets the latest 10 day(s).
| Time | Temp. | Humidity | Pressure | Rain* | Wind** | Luminosity | Snow |
|---|---|---|---|---|---|---|---|
| 1777678780 | 17.78° C | 48% | 1010.4 hPa | 0 mm | - | 19 W/m² | - |
| 1777678477 | 17.78° C | 47% | 1010.3 hPa | 0 mm | - | 26 W/m² | - |
| 1777678172 | 17.78° C | 47% | 1010.7 hPa | 0 mm | - | 29 W/m² | - |
| 1777677870 | 18.33° C | 47% | 1010.5 hPa | 0 mm | - | 32 W/m² | - |
| 1777677567 | 18.33° C | 46% | 1010.4 hPa | 0 mm | - | 39 W/m² | - |
| 1777677266 | 18.33° C | 46% | 1010.5 hPa | 0 mm | - | 49 W/m² | - |
| 1777676963 | 18.33° C | 45% | 1010.3 hPa | 0 mm | - | 61 W/m² | - |
| 1777676662 | 18.33° C | 45% | 1010.1 hPa | 0 mm | - | 55 W/m² | - |
| 1777676359 | 18.33° C | 45% | 1010.4 hPa | 0 mm | - | 62 W/m² | - |
| 1777676057 | 18.33° C | 45% | 1010.4 hPa | 0 mm | - | 106 W/m² | - |
| 1777675752 | 18.33° C | 44% | 1010.2 hPa | 0 mm | - | 96 W/m² | - |
| 1777675450 | 18.89° C | 44% | 1010.3 hPa | 0 mm | - | 122 W/m² | - |
| 1777675146 | 18.89° C | 43% | 1010.2 hPa | 0 mm | - | 126 W/m² | - |
| 1777674842 | 18.89° C | 44% | 1010.2 hPa | 0 mm | - | 163 W/m² | - |
| 1777674539 | 18.89° C | 43% | 1010.4 hPa | 0 mm | - | 160 W/m² | - |
| 1777674237 | 18.89° C | 43% | 1010.4 hPa | 0 mm | - | 59 W/m² | - |
| 1777673933 | 18.89° C | 42% | 1010.6 hPa | 0 mm | - | 69 W/m² | - |
| 1777673630 | 18.89° C | 42% | 1010.6 hPa | 0 mm | - | 232 W/m² | - |
| 1777673328 | 19.44° C | 41% | 1010.4 hPa | 0 mm | - | 247 W/m² | - |
| 1777673025 | 19.44° C | 41% | 1010.3 hPa | 0 mm | - | 260 W/m² | - |
| 1777672721 | 18.89° C | 41% | 1010.5 hPa | 0 mm | - | 288 W/m² | - |
| 1777672417 | 18.89° C | 41% | 1010.4 hPa | 0 mm | - | 298 W/m² | - |
| 1777672113 | 18.89° C | 40% | 1010.4 hPa | 0 mm | - | 317 W/m² | - |
| 1777671808 | 18.89° C | 41% | 1010.7 hPa | 0 mm | - | 311 W/m² | - |
| 1777671505 | 18.89° C | 41% | 1010.5 hPa | 0 mm | - | 345 W/m² | - |
* Rain latest hour (hover to see other rain measurements)
** Current wind speed in m/s (hover to see current wind gust speed)